KLM12L EHAM-EKCH

Flight info

Callsign KLM12L
Flight time N/A
Altitude 33000
Route ANDIK N873 JUIST DCT DOSUR DCT TALSA P729 TUDLO
Aircraft A320/M-SDE3FGHIRWY/LB1

Departure

Time 2026-04-30 18:21
Airport Amsterdam Airport Schiphol (EHAM)

Arrival

Time N/A
Airport Copenhagen Kastrup Airport (EKCH)
Time Latitude Longitude Altitude Speed Heading
2026-04-30 17:56 52.31214 4.76076 -1 ft 0 kts 85°
2026-04-30 18:10 52.31213 4.76057 -1 ft 2 kts 85°
2026-04-30 18:11 52.31200 4.75954 1 ft 2 kts
2026-04-30 18:11 52.31198 4.75954 1 ft 0 kts
2026-04-30 18:15 52.31218 4.75953 2 ft 0 kts 353°
2026-04-30 18:15 52.31507 4.75899 18 ft 13 kts 316°
2026-04-30 18:16 52.31518 4.75619 11 ft 0 kts 270°
2026-04-30 18:16 52.31518 4.75598 12 ft 0 kts 270°
2026-04-30 18:17 52.31518 4.75597 12 ft 0 kts 270°
2026-04-30 18:17 52.31518 4.75543 12 ft 6 kts 269°
2026-04-30 18:18 52.31514 4.75457 12 ft 10 kts 266°
2026-04-30 18:18 52.31509 4.75323 10 ft 14 kts 266°
2026-04-30 18:18 52.31504 4.75188 10 ft 9 kts 266°
2026-04-30 18:18 52.31502 4.75090 12 ft 8 kts 268°
2026-04-30 18:19 52.31499 4.74979 14 ft 12 kts 268°
2026-04-30 18:19 52.31496 4.74831 14 ft 14 kts 268°
2026-04-30 18:19 52.31502 4.74698 16 ft 10 kts 295°
2026-04-30 18:19 52.31554 4.74665 19 ft 7 kts 354°
2026-04-30 18:20 52.31602 4.74657 19 ft 6 kts 356°
2026-04-30 18:20 52.31648 4.74680 21 ft 9 kts 29°
2026-04-30 18:20 52.31672 4.74775 19 ft 0 kts 84°
2026-04-30 18:20 52.31683 4.74996 13 ft 73 kts 86°
2026-04-30 18:21 52.31718 4.76455 104 ft 169 kts 88°
2026-04-30 18:21 52.31812 4.78501 1051 ft 186 kts 81°
2026-04-30 18:21 52.32447 4.80298 2405 ft 194 kts 47°
2026-04-30 18:21 52.33839 4.80944 3434 ft 231 kts
2026-04-30 18:22 52.35462 4.80588 4591 ft 238 kts 353°
2026-04-30 18:22 52.39239 4.78772 5905 ft 350 kts 331°
2026-04-30 18:22 52.41325 4.76246 5991 ft 375 kts 319°
2026-04-30 18:23 52.43111 4.73390 5997 ft 345 kts 317°
2026-04-30 18:23 52.45027 4.71292 6016 ft 329 kts 338°
2026-04-30 18:23 52.47235 4.70290 6016 ft 332 kts 357°
2026-04-30 18:23 52.49560 4.70439 6253 ft 342 kts 17°
2026-04-30 18:24 52.53684 4.74045 8719 ft 337 kts 50°
2026-04-30 18:24 52.55090 4.77108 9938 ft 336 kts 62°
2026-04-30 18:24 52.56346 4.80389 11102 ft 341 kts 62°
2026-04-30 18:25 52.57605 4.83717 12155 ft 347 kts 62°
2026-04-30 18:25 52.60177 4.90520 12936 ft 352 kts 60°
2026-04-30 18:25 52.61596 4.93843 13107 ft 354 kts 58°
2026-04-30 18:26 52.64570 5.00333 13472 ft 357 kts 55°
2026-04-30 18:26 52.66146 5.03494 13651 ft 357 kts 54°
2026-04-30 18:26 52.67765 5.06601 13841 ft 360 kts 53°
2026-04-30 18:27 52.71051 5.12781 16255 ft 351 kts 53°
2026-04-30 18:27 52.72659 5.15833 17343 ft 353 kts 53°
2026-04-30 18:28 52.75893 5.22072 19177 ft 363 kts 53°
2026-04-30 18:28 52.77540 5.25279 19991 ft 368 kts 53°
2026-04-30 18:28 52.80897 5.31807 21617 ft 377 kts 52°
2026-04-30 18:29 52.82603 5.35121 22410 ft 382 kts 52°
2026-04-30 18:29 52.87845 5.45351 24585 ft 394 kts 52°
2026-04-30 18:30 52.90813 5.51165 25613 ft 401 kts 52°
2026-04-30 18:30 52.94443 5.58294 26846 ft 408 kts 52°
2026-04-30 18:31 52.96283 5.61909 27495 ft 411 kts 51°
2026-04-30 18:31 53.00601 5.70408 28916 ft 418 kts 51°
2026-04-30 18:32 53.04378 5.77875 30070 ft 425 kts 51°
2026-04-30 18:32 53.05664 5.80430 30422 ft 428 kts 51°
2026-04-30 18:32 53.09498 5.88058 31519 ft 430 kts 51°
2026-04-30 18:33 53.11412 5.91866 32210 ft 428 kts 50°
2026-04-30 18:33 53.15221 5.99457 33259 ft 426 kts 50°
2026-04-30 18:33 53.17118 6.03253 33351 ft 426 kts 50°
2026-04-30 18:34 53.22785 6.14620 33373 ft 424 kts 50°
2026-04-30 18:35 53.26544 6.22195 33376 ft 422 kts 50°
2026-04-30 18:35 53.30287 6.29763 33383 ft 422 kts 50°
2026-04-30 18:36 53.35900 6.41139 33395 ft 422 kts 50°
2026-04-30 18:37 53.41498 6.52523 33389 ft 421 kts 50°
2026-04-30 18:37 53.45209 6.60124 33384 ft 421 kts 51°
2026-04-30 18:38 53.48921 6.67745 33385 ft 421 kts 51°